TimeEST,TemperatureF,Dew PointF,Humidity,Sea Level PressureIn,VisibilityMPH,Wind Direction,Wind SpeedMPH,Gust SpeedMPH,PrecipitationIn,Events,Conditions,WindDirDegrees,DateUTC
12:15 AM,57.2,50.0,77,30.04,10.0,South,9.2,-,N/A,,Clear,170,2012-11-04 04:15:00
12:35 AM,59.0,50.0,72,30.04,10.0,South,6.9,-,N/A,,Clear,180,2012-11-04 04:35:00
12:55 AM,55.4,50.0,82,30.04,10.0,South,5.8,-,N/A,,Clear,180,2012-11-04 04:55:00
1:15 AM,59.0,51.8,77,30.04,10.0,SSW,4.6,-,N/A,,Clear,210,2012-11-04 05:15:00
1:35 AM,59.0,51.8,77,30.04,10.0,SSW,4.6,-,N/A,,Clear,200,2012-11-04 05:35:00
1:55 AM,59.0,51.8,77,30.04,10.0,SSW,5.8,-,N/A,,Clear,210,2012-11-04 05:55:00
1:15 AM,60.8,53.6,77,30.03,10.0,SW,6.9,-,N/A,,Clear,220,2012-11-04 06:15:00
1:35 AM,60.8,53.6,77,30.03,10.0,SSW,6.9,-,N/A,,Clear,210,2012-11-04 06:35:00
1:55 AM,59.0,51.8,77,30.03,10.0,SW,5.8,-,N/A,,Clear,220,2012-11-04 06:55:00
2:15 AM,59.0,53.6,82,30.03,10.0,SW,5.8,-,N/A,,Clear,220,2012-11-04 07:15:00
2:35 AM,59.0,53.6,82,30.02,10.0,SW,6.9,-,N/A,,Clear,220,2012-11-04 07:35:00
2:55 AM,59.0,51.8,77,30.02,10.0,SW,4.6,-,N/A,,Clear,220,2012-11-04 07:55:00
3:15 AM,57.2,51.8,82,30.02,10.0,Calm,Calm,-,N/A,,Clear,0,2012-11-04 08:15:00
3:35 AM,55.4,51.8,88,30.01,10.0,Calm,Calm,-,N/A,,Clear,0,2012-11-04 08:35:00
3:55 AM,57.2,51.8,82,30.00,10.0,SSW,3.5,-,N/A,,Clear,210,2012-11-04 08:55:00
4:15 AM,57.2,51.8,82,30.00,10.0,Calm,Calm,-,N/A,,Clear,0,2012-11-04 09:15:00
4:35 AM,53.6,51.8,94,30.01,10.0,WSW,3.5,-,N/A,,Clear,240,2012-11-04 09:35:00
4:55 AM,55.4,51.8,88,30.02,10.0,Calm,Calm,-,N/A,,Clear,0,2012-11-04 09:55:00
5:15 AM,53.6,51.8,94,30.01,10.0,SSW,3.5,-,N/A,,Clear,200,2012-11-04 10:15:00
5:35 AM,55.4,51.8,88,30.01,10.0,Calm,Calm,-,N/A,,Clear,0,2012-11-04 10:35:00
5:55 AM,55.4,53.6,94,30.00,10.0,SW,4.6,-,N/A,,Clear,220,2012-11-04 10:55:00
6:15 AM,55.4,51.8,88,30.01,10.0,Calm,Calm,-,N/A,,Clear,0,2012-11-04 11:15:00
6:35 AM,53.6,51.8,94,30.01,10.0,WSW,4.6,-,N/A,,Clear,240,2012-11-04 11:35:00
6:55 AM,53.6,53.6,100,30.02,10.0,WSW,4.6,-,N/A,,Clear,250,2012-11-04 11:55:00
7:15 AM,53.6,53.6,100,30.03,10.0,West,3.5,-,N/A,,Clear,270,2012-11-04 12:15:00
7:35 AM,55.4,55.4,100,30.03,7.0,Calm,Calm,-,N/A,,Clear,0,2012-11-04 12:35:00
7:55 AM,59.0,55.4,88,30.03,10.0,WSW,5.8,-,N/A,,Clear,240,2012-11-04 12:55:00
8:15 AM,60.8,55.4,82,30.03,10.0,WSW,4.6,-,N/A,,Clear,250,2012-11-04 13:15:00
8:35 AM,64.4,57.2,77,30.03,10.0,WSW,4.6,-,N/A,,Clear,240,2012-11-04 13:35:00
8:55 AM,68.0,57.2,68,30.03,10.0,West,6.9,-,N/A,,Clear,260,2012-11-04 13:55:00
9:15 AM,69.8,57.2,64,30.03,10.0,West,9.2,-,N/A,,Clear,270,2012-11-04 14:15:00
9:35 AM,69.8,55.4,60,30.03,10.0,West,9.2,-,N/A,,Clear,260,2012-11-04 14:35:00
9:55 AM,73.4,55.4,53,30.02,10.0,West,13.8,-,N/A,,Clear,260,2012-11-04 14:55:00
10:15 AM,75.2,57.2,53,30.02,10.0,WSW,13.8,-,N/A,,Clear,250,2012-11-04 15:15:00
10:35 AM,77.0,57.2,50,30.01,10.0,West,12.7,17.3,N/A,,Clear,270,2012-11-04 15:35:00
10:55 AM,77.0,57.2,50,30.01,10.0,West,12.7,18.4,N/A,,Clear,260,2012-11-04 15:55:00
11:15 AM,77.0,57.2,50,30.01,10.0,WSW,16.1,21.9,N/A,,Clear,240,2012-11-04 16:15:00
11:35 AM,78.8,57.2,47,30.00,10.0,WSW,17.3,23.0,N/A,,Clear,240,2012-11-04 16:35:00
11:55 AM,77.0,57.2,50,29.99,10.0,WSW,12.7,18.4,N/A,,Clear,250,2012-11-04 16:55:00
12:15 PM,77.0,59.0,54,29.98,10.0,WSW,16.1,-,N/A,,Clear,240,2012-11-04 17:15:00
12:35 PM,78.8,57.2,47,29.97,10.0,West,15.0,21.9,N/A,,Clear,260,2012-11-04 17:35:00
12:55 PM,80.6,55.4,42,29.97,10.0,West,18.4,26.5,N/A,,Clear,260,2012-11-04 17:55:00
1:15 PM,80.6,53.6,39,29.96,10.0,West,19.6,28.8,N/A,,Clear,270,2012-11-04 18:15:00
1:35 PM,80.6,53.6,39,29.95,10.0,West,12.7,25.3,N/A,,Clear,260,2012-11-04 18:35:00
1:55 PM,80.6,55.4,42,29.95,10.0,West,15.0,20.7,N/A,,Scattered Clouds,280,2012-11-04 18:55:00
2:15 PM,78.8,53.6,42,29.94,10.0,West,15.0,-,N/A,,Mostly Cloudy,260,2012-11-04 19:15:00
2:35 PM,78.8,53.6,42,29.94,10.0,West,8.1,-,N/A,,Mostly Cloudy,260,2012-11-04 19:35:00
2:55 PM,78.8,53.6,42,29.94,10.0,West,20.7,26.5,N/A,,Scattered Clouds,270,2012-11-04 19:55:00
3:15 PM,78.8,53.6,42,29.94,10.0,WNW,12.7,24.2,N/A,,Clear,290,2012-11-04 20:15:00
3:35 PM,77.0,53.6,44,29.94,10.0,West,11.5,19.6,N/A,,Scattered Clouds,270,2012-11-04 20:35:00
3:55 PM,77.0,53.6,44,29.94,10.0,West,8.1,16.1,N/A,,Clear,270,2012-11-04 20:55:00
4:15 PM,77.0,53.6,44,29.94,10.0,WNW,10.4,-,N/A,,Clear,290,2012-11-04 21:15:00
4:35 PM,75.2,53.6,47,29.93,10.0,West,9.2,-,N/A,,Clear,280,2012-11-04 21:35:00
4:55 PM,73.4,53.6,50,29.94,10.0,WNW,8.1,-,N/A,,Clear,290,2012-11-04 21:55:00
5:15 PM,73.4,53.6,50,29.95,10.0,West,6.9,-,N/A,,Clear,280,2012-11-04 22:15:00
5:35 PM,69.8,53.6,56,29.96,10.0,NW,10.4,21.9,N/A,,Clear,310,2012-11-04 22:35:00
5:55 PM,68.0,53.6,60,29.95,10.0,WNW,4.6,-,N/A,,Scattered Clouds,300,2012-11-04 22:55:00
6:15 PM,66.2,55.4,68,29.96,10.0,WNW,3.5,-,N/A,,Scattered Clouds,290,2012-11-04 23:15:00
6:35 PM,64.4,57.2,77,29.97,10.0,WNW,3.5,-,N/A,,Mostly Cloudy,290,2012-11-04 23:35:00
6:55 PM,64.4,57.2,77,29.97,10.0,WNW,3.5,-,N/A,,Overcast,290,2012-11-04 23:55:00
7:15 PM,64.4,57.2,77,29.97,10.0,Calm,Calm,-,N/A,,Mostly Cloudy,0,2012-11-05 00:15:00
7:35 PM,62.6,57.2,82,29.98,10.0,West,3.5,-,N/A,,Mostly Cloudy,280,2012-11-05 00:35:00
7:55 PM,62.6,57.2,82,29.98,10.0,WNW,3.5,-,N/A,,Scattered Clouds,290,2012-11-05 00:55:00
8:15 PM,62.6,59.0,88,29.98,10.0,WNW,3.5,-,N/A,,Mostly Cloudy,300,2012-11-05 01:15:00
8:35 PM,62.6,57.2,82,29.98,10.0,Calm,Calm,-,N/A,,Overcast,0,2012-11-05 01:35:00
8:55 PM,62.6,57.2,82,29.99,10.0,Calm,Calm,-,N/A,,Scattered Clouds,0,2012-11-05 01:55:00
9:15 PM,62.6,57.2,82,29.99,10.0,NW,3.5,-,N/A,,Clear,320,2012-11-05 02:15:00
9:35 PM,62.6,57.2,82,29.99,10.0,Calm,Calm,-,N/A,,Clear,0,2012-11-05 02:35:00
9:55 PM,60.8,57.2,88,29.99,10.0,Calm,Calm,-,N/A,,Clear,0,2012-11-05 02:55:00
10:15 PM,59.0,55.4,88,29.98,10.0,Calm,Calm,-,N/A,,Clear,0,2012-11-05 03:15:00
10:35 PM,59.0,55.4,88,29.98,10.0,Calm,Calm,-,N/A,,Clear,0,2012-11-05 03:35:00
10:55 PM,59.0,55.4,88,29.98,10.0,Calm,Calm,-,N/A,,Clear,0,2012-11-05 03:55:00